Location: Chisholm
(54.9102°N, 114.1701°W)
Time: 20:02:52
(UTC+00:00)

ISS - Pass Details

Date: 04 December 2021
Orbit: 413 x 422 km, 51.6° (Epoch: 18 January)

Event Time Altitude Azimuth Distance (km) Brightness Sun altitude
Rises 01:18:59 0° 275° (W) 2,387 1.5 -17.0°
Reaches altitude 10° 01:21:15 10° 264° (W) 1,518 0.4 -17.3°
Maximum altitude 01:24:15 29° 202° (SSW) 810 -2.0 -17.7°
Enters shadow 01:26:13 17° 151° (SSE) 1,166 -1.7 -18.0°
